Zurück zum Katalog

CZ-6A DEB

AktivSSO
NORAD 56239·DEBRIS·🇨🇳 China

Gestartet Nov 11, 2022 von Taiyuan Satellite Launch Center

Loading…

Nächste Überflüge (nächste 24 Stunden)

TLE

AktuellSource: Space-Track

Epoche: Sep 12, 2026, 12:06 UTC

1 56239U 22151ABF 26255.50483080  .00002306  00000-0  79271-3 0  9994
2 56239  98.6828 274.2511 0063581 217.4308 142.2440 14.35870176186787

Verfolge CZ-6A DEB in Echtzeit mit AllMySat

Download on the App Store